{"data":{"norad_id":65120,"epoch":"2026-05-25T04:34:15.776832Z","epoch_age_seconds":62607,"freshness":"FRESH","line1":"1 65120U 25170B   26145.19046038  .00001426  00000+0  19706-3 0  9996","line2":"2 65120  49.9863 280.9192 0009536 358.9289   1.1627 14.83887117 43049","mean_motion":14.83887117,"eccentricity":0.0009536,"inclination_deg":49.9863,"raan_deg":280.9192,"arg_perigee_deg":358.9289,"mean_anomaly_deg":1.1627,"bstar":0.00019706,"rev_number":4304,"period_min":97.042422129203,"perigee_km":610.41054750284,"apogee_km":623.75182763016,"semimajor_km":6995.2181875665,"source":"CELESTRAK","updated_at":"2026-05-25T13:38:05.137067Z"}}